Weather History for PHHI - October, 2013

Change the Weather History Date:

Wednesday, October 2, 2013

  Actual Average Record
Temperature  
Mean Temperature 76 °F -  
Max Temperature 82 °F 81 °F 89 °F (2002)
Min Temperature 71 °F 68 °F 66 °F (1996)
Cooling Degree Days 12    
Growing Degree Days 26 (Base 50)    
Moisture  
Dew Point 66 °F    
Average Humidity 72    
Maximum Humidity 83    
Minimum Humidity 54    
Precipitation  
Precipitation 0.00 in - - ()
Sea Level Pressure  
Sea Level Pressure 29.95 in    
Wind  
Wind Speed 6 mph (SE)    
Max Wind Speed 15 mph    
Max Gust Speed 20 mph    
Visibility 10 miles    
Events      
Averages and records for this station are not official NWS values.
T = Trace of Precipitation, MM = Missing Value Source: NWS Daily Summary

Daily Weather History Graph

Daily Weather History Graph

Search for Another Location

Airport or City:

Trip Planner

Search our weather history database for the weather conditions in past years. The results will help you decide how hot, cold, wet, or windy it might be!

Date:

Astronomy

Oct. 02, 2013 Rise Set
Actual Time 6:23 AM HST 6:18 PM HST
Civil Twilight 6:01 AM HST 6:40 PM HST
Nautical Twilight 5:35 AM HST 7:06 PM HST
Astronomical Twilight 5:09 AM HST 7:32 PM HST
Moon 4:21 AM HST (10/2) 4:51 PM HST (10/2)
Length of Visible Light 12h 39m
Length of Day
11h 54m
Waning Crescent, 5% of the Moon is Illuminated
Oct 2
Waning Crescent
Oct 4
New
Oct 11
First Quarter
Oct 18
Full
Oct 26
Last Quarter

Hourly Weather History & Observations

Time (HST) Temp. Heat Index Dew Point Humidity Pressure Visibility Wind Dir Wind Speed Gust Speed Precip Events Conditions
12:58 AM 73.4 °F - 66.2 °F 78% 29.98 in 10.0 mi South 4.6 mph - N/A   Partly Cloudy
1:58 AM 73.4 °F - 66.2 °F 78% 29.96 in 10.0 mi ESE 5.8 mph - N/A   Clear
2:58 AM 73.4 °F - 66.2 °F 78% 29.95 in 10.0 mi SSW 2.3 mph - N/A   Clear
3:58 AM 71.6 °F - 66.2 °F 83% 29.93 in 10.0 mi WSW 1.2 mph - N/A   Partly Cloudy
4:58 AM 71.6 °F - 66.2 °F 83% 29.94 in 10.0 mi SSE 2.3 mph - N/A   Scattered Clouds
5:58 AM 71.6 °F - 64.4 °F 78% 29.95 in 10.0 mi SSW 2.3 mph - N/A   Partly Cloudy
6:58 AM 71.6 °F - 66.2 °F 83% 29.96 in 10.0 mi South 2.3 mph - N/A   Clear
7:58 AM 77.0 °F - 68.0 °F 74% 29.96 in 10.0 mi SE 5.8 mph - N/A   Clear
8:58 AM 78.8 °F - 66.2 °F 65% 29.98 in 10.0 mi SSE 5.8 mph - N/A   Clear
11:55 AM 82.4 °F 84.6 °F 66.2 °F 58% 29.93 in 10.0 mi East 11.5 mph 19.6 mph N/A   Scattered Clouds
12:58 PM 82.4 °F 83.9 °F 64.4 °F 54% 29.91 in 10.0 mi East 15.0 mph - N/A   Clear
1:58 PM 82.4 °F 84.6 °F 66.2 °F 58% 29.91 in 10.0 mi East 13.8 mph - N/A   Partly Cloudy
2:58 PM 82.4 °F 84.6 °F 66.2 °F 58% 29.90 in 10.0 mi ENE 13.8 mph - N/A   Clear
3:58 PM 80.6 °F 82.7 °F 66.2 °F 61% 29.90 in 10.0 mi ENE 13.8 mph - N/A   Clear
4:58 PM 78.8 °F - 66.2 °F 65% 29.90 in 10.0 mi ENE 15.0 mph - N/A   Clear
5:58 PM 77.0 °F - 66.2 °F 69% 29.92 in 10.0 mi East 10.4 mph - N/A   Clear
6:58 PM 75.2 °F - 66.2 °F 73% 29.94 in 10.0 mi South 3.5 mph - N/A   Partly Cloudy
7:58 PM 75.2 °F - 66.2 °F 73% 29.95 in 10.0 mi East 2.3 mph - N/A   Clear
8:58 PM 73.4 °F - 66.2 °F 78% 29.97 in 10.0 mi SSE 4.6 mph - N/A   Clear
9:58 PM 73.4 °F - 66.2 °F 78% 29.98 in 10.0 mi South 4.6 mph - N/A   Clear
10:48 PM 73.4 °F - 66.2 °F 78% 30.00 in 10.0 mi Variable 4.6 mph - N/A   Mostly Cloudy
10:58 PM 73.4 °F - 66.2 °F 78% 29.96 in 10.0 mi SE 3.5 mph - N/A   Mostly Cloudy
11:58 PM 73.4 °F - 66.2 °F 78% 29.99 in 10.0 mi South 5.8 mph - N/A   Partly Cloudy